GW1476 Weather Reports


Display with metric or nautical units.
time (UTC)temp
F
wind
direction
speed
MPH
gust
MPH
rain 1hr
in
rain 24hr
in
rain mn
in
humidity
%
barometer
mb
20260906103359 71 23 0.0 0.0 0.00 0.00 0.00 99 1015.2
20260906102441 70 203 0.0 0.0 0.00 0.00 0.00 99 1015.2
20260906102010 70 225 0.0 0.0 0.00 0.00 0.00 99 1015.2
20260906101125 70 203 0.0 0.0 0.00 0.00 0.00 99 1015.2
20260906100223 70 225 0.0 0.0 0.00 0.00 0.00 99 1015.2
20260906095751 70 225 0.0 0.0 0.00 0.00 0.00 99 1014.9
20260906095321 70 203 0.0 0.0 0.00 0.00 0.00 99 1014.9
20260906094902 70 203 0.0 0.0 0.00 0.00 0.00 99 1014.9
20260906093946 70 203 0.0 0.0 0.00 0.00 0.00 99 1014.9
20260906093529 70 225 0.0 0.0 0.00 0.00 0.00 99 1014.9
20260906093114 70 180 0.0 0.0 0.00 0.00 0.00 99 1014.9
20260906092656 70 203 0.0 0.0 0.00 0.00 0.00 99 1014.9
20260906091340 71 203 0.0 0.0 0.00 0.00 0.00 99 1014.9
20260906090908 71 180 0.0 0.0 0.00 0.00 0.00 99 1014.9
20260906090002 71 203 0.0 0.0 0.00 0.00 0.00 99 1014.9
20260906085530 71 203 0.0 0.0 0.00 0.00 0.00 99 1014.9
20260906085113 71 203 0.0 0.0 0.00 0.00 0.00 99 1014.9
20260906084642 71 90 0.0 0.0 0.00 0.00 0.00 99 1014.9
20260906084212 71 203 0.0 0.0 0.00 0.00 0.00 99 1014.9
20260906083739 71 180 0.0 0.0 0.00 0.00 0.00 99 1014.9
20260906083323 71 180 0.0 0.0 0.00 0.00 0.00 99 1014.9
20260906082904 71 158 0.0 0.0 0.00 0.00 0.00 99 1015.2
20260906082433 71 203 0.0 0.0 0.00 0.00 0.00 99 1015.2
20260906082002 71 225 0.0 0.0 0.00 0.00 0.00 99 1015.2
20260906081515 71 315 0.0 0.0 0.00 0.00 0.00 99 1015.2
20260906081044 71 338 0.0 0.0 0.00 0.00 0.00 99 1015.2
20260906080614 71 45 0.0 0.0 0.00 0.00 0.00 99 1015.2
20260906080144 71 45 0.0 0.0 0.00 0.00 0.00 99 1014.9
20260906075726 71 225 0.0 0.0 0.00 0.00 0.00 99 1014.9
20260906074837 71 225 0.0 0.0 0.00 0.00 0.00 99 1014.9
20260906074422 71 203 0.0 0.0 0.00 0.00 0.00 99 1014.9
20260906074004 71 203 0.0 0.0 0.00 0.00 0.00 99 1014.9
20260906073533 71 203 0.0 0.0 0.00 0.00 0.00 99 1014.9
20260906073116 71 203 0.0 0.0 0.00 0.00 0.00 99 1014.9
20260906072227 71 225 0.0 0.0 0.00 0.00 0.00 99 1015.2
20260906071756 71 338 0.0 0.0 0.00 0.00 0.00 99 1015.2
20260906071340 71 0 0.0 0.0 0.00 0.00 0.00 99 1014.9
20260906070422 71 23 0.0 0.0 0.00 0.00 0.00 99 1014.9
20260906065518 71 338 0.0 0.0 0.00 0.00 0.00 99 1014.9
20260906064630 71 180 0.0 0.0 0.00 0.00 0.00 99 1014.5
20260906063725 71 315 0.0 0.0 0.00 0.00 0.00 99 1014.9
20260906063307 71 270 0.0 0.0 0.00 0.00 0.00 99 1014.9
20260906062851 71 270 0.0 0.0 0.00 0.00 0.00 99 1014.9
20260906062436 71 270 0.0 0.0 0.00 0.00 0.00 99 1014.9
20260906062002 71 225 0.0 0.0 0.00 0.00 0.00 99 1014.9
20260906061531 71 180 0.0 0.0 0.00 0.00 0.00 99 1014.9
20260906061114 71 225 0.0 0.0 0.00 0.00 0.00 99 1015.2
20260906060657 71 203 0.0 0.0 0.00 0.00 0.00 99 1015.2
20260906060242 71 203 0.0 0.0 0.00 0.00 0.00 99 1015.2
20260906055825 71 203 0.0 0.0 0.00 0.00 0.00 99 1015.2
20260906055410 71 203 0.0 0.0 0.00 0.00 0.00 99 1015.2
20260906054954 71 203 0.0 0.0 0.00 0.00 0.00 99 1015.2
20260906054053 71 225 0.0 0.0 0.00 0.00 0.00 99 1015.5
20260906053639 71 90 0.0 2.0 0.00 0.00 0.00 99 1015.5
20260906053208 71 45 0.0 0.0 0.00 0.00 0.00 99 1015.2
20260906052737 71 0 0.0 0.0 0.00 0.00 0.00 99 1015.2
20260906052306 71 0 0.0 0.0 0.00 0.00 0.00 99 1015.2
20260906051834 71 293 0.0 0.0 0.00 0.00 0.00 99 1015.2
20260906050918 71 0 0.0 0.0 0.00 0.00 0.00 99 1014.9
20260906050503 71 293 0.0 0.0 0.00 0.00 0.00 99 1014.9
20260906050033 72 225 0.0 0.0 0.00 0.00 0.00 99 1014.9
20260906045616 72 225 0.0 0.0 0.00 0.00 0.00 99 1015.2
20260906045159 72 225 0.0 0.0 0.00 0.00 0.00 99 1014.9
20260906044743 72 248 0.0 0.0 0.00 0.00 0.00 99 1014.9
20260906044312 72 180 0.0 0.0 0.00 0.00 0.00 99 1014.9
20260906043840 72 203 0.0 0.0 0.00 0.00 0.00 99 1014.9
20260906043410 72 203 0.0 0.0 0.00 0.00 0.00 99 1015.2
20260906042509 72 248 0.0 0.0 0.00 0.00 0.00 99 1015.2
20260906042054 72 338 0.0 0.0 0.00 0.00 0.00 99 1014.9
20260906041622 72 203 0.0 0.0 0.00 0.00 0.00 99 1014.9
20260906041136 72 203 0.0 0.0 0.00 0.00 0.00 99 1014.9
20260906040719 72 270 0.0 0.0 0.00 0.00 0.00 99 1014.9
20260906040302 72 270 0.0 0.0 0.00 0.00 0.00 99 1014.9
20260906035832 72 225 0.0 0.0 0.00 0.00 0.22 99 1014.9
20260906035415 72 225 0.0 0.0 0.00 0.00 0.22 99 1014.9
20260906034958 72 225 0.0 0.0 0.00 0.00 0.22 99 1014.9
20260906034545 72 270 0.0 0.0 0.00 0.00 0.22 99 1014.9
20260906033610 72 203 0.0 0.0 0.00 0.00 0.22 99 1015.2
20260906033156 72 225 0.0 0.0 0.00 0.00 0.22 99 1015.2
20260906032721 73 248 0.0 0.0 0.00 0.00 0.22 99 1015.2
20260906032250 73 270 0.0 0.0 0.00 0.00 0.22 99 1015.2
20260906031348 73 203 0.0 0.0 0.00 0.00 0.22 99 1015.5
20260906030444 73 225 0.0 0.0 0.00 0.00 0.22 99 1015.5
20260906030027 73 225 0.0 0.0 0.00 0.00 0.22 99 1015.5
20260906025556 73 270 0.0 0.0 0.00 0.00 0.22 99 1015.5
20260906025123 73 203 0.0 0.0 0.00 0.00 0.22 99 1015.5
20260906024650 73 248 0.0 0.0 0.00 0.00 0.22 99 1015.5
20260906024219 73 225 0.0 0.0 0.00 0.00 0.22 99 1015.5
20260906023746 73 203 0.0 0.0 0.00 0.00 0.22 99 1015.5
20260906022844 73 203 0.0 0.0 0.00 0.00 0.22 99 1015.5
20260906022412 73 180 0.0 0.0 0.00 0.00 0.22 99 1015.5
20260906021956 73 203 0.0 0.0 0.00 0.00 0.22 99 1015.5
20260906021526 73 225 0.0 0.0 0.00 0.00 0.22 99 1015.5
20260906021109 73 270 0.0 0.0 0.00 0.00 0.22 99 1015.5
20260906020621 73 203 0.0 0.0 0.00 0.00 0.22 99 1015.5
20260906020150 74 203 0.0 0.0 0.00 0.00 0.22 99 1015.5
20260906015301 74 203 0.0 0.0 0.00 0.00 0.22 99 1015.2
20260906014829 74 203 0.0 0.0 0.00 0.00 0.22 99 1015.2
20260906013941 74 203 0.0 0.0 0.00 0.00 0.22 99 1014.9
20260906013524 74 203 0.0 0.0 0.00 0.00 0.22 99 1014.9
20260906013051 74 203 0.0 0.0 0.00 0.00 0.22 99 1014.9
20260906011731 75 225 0.0 0.0 0.00 0.00 0.22 99 1014.9
20260906011245 75 225 0.0 0.0 0.00 0.00 0.22 99 1014.9
20260906010341 75 203 1.0 1.0 0.00 0.00 0.22 99 1014.5
20260906005924 76 225 0.0 0.0 0.00 0.00 0.22 99 1014.5
20260906005508 76 203 1.0 2.0 0.00 0.00 0.22 99 1014.5
20260906005036 76 203 0.0 2.0 0.00 0.00 0.22 99 1014.5
20260906004132 76 248 0.0 0.0 0.00 0.00 0.22 99 1014.5
20260906003714 76 203 0.0 0.0 0.00 0.00 0.22 99 1014.5
20260906003258 76 225 0.0 0.0 0.00 0.00 0.22 99 1014.5
20260906002811 76 203 2.0 2.0 0.00 0.00 0.22 99 1014.5
20260906002354 77 203 0.0 0.0 0.00 0.00 0.22 99 1014.5
20260906001937 77 203 0.0 0.0 0.00 0.00 0.22 99 1014.5
20260906001521 77 225 2.0 2.0 0.00 0.00 0.22 99 1014.5
20260906001049 78 203 0.0 0.0 0.00 0.00 0.22 99 1014.5
20260906000204 78 225 1.0 1.0 0.00 0.00 0.22 99 1014.5
20260905235744 78 203 2.0 2.0 0.00 0.00 0.22 99 1014.5
20260905235310 78 225 2.0 2.0 0.00 0.00 0.22 98 1014.5
20260905234839 78 180 2.0 2.0 0.00 0.00 0.22 98 1014.5
20260905234423 79 203 1.0 2.0 0.00 0.00 0.22 98 1014.5
20260905234007 79 203 3.0 3.0 0.00 0.00 0.22 97 1014.5
20260905233553 79 203 2.0 2.0 0.00 0.00 0.22 96 1014.9
20260905232654 79 180 3.0 3.0 0.00 0.00 0.22 95 1014.9
20260905232226 79 203 3.0 3.0 0.00 0.00 0.22 95 1014.5
20260905231756 80 180 2.0 3.0 0.00 0.00 0.22 94 1014.9
20260905230911 80 225 2.0 2.0 0.00 0.00 0.22 92 1014.9
20260905230441 81 180 1.0 2.0 0.00 0.00 0.22 92 1014.9
20260905230010 80 180 2.0 2.0 0.00 0.00 0.22 92 1014.9
20260905225055 82 180 2.0 3.0 0.00 0.00 0.22 89 1014.5
20260905224638 81 248 2.0 3.0 0.00 0.00 0.22 89 1014.5
20260905224220 82 180 3.0 3.0 0.00 0.00 0.22 87 1014.5
20260905223802 83 180 2.0 3.0 0.00 0.00 0.22 86 1014.5
20260905223333 83 180 2.0 3.0 0.00 0.00 0.22 84 1014.5
20260905222917 85 180 2.0 2.0 0.00 0.00 0.22 79 1014.5
20260905222503 87 203 2.0 2.0 0.00 0.00 0.22 75 1014.5
20260905222047 87 23 0.0 3.0 0.00 0.00 0.22 71 1014.5
20260905221632 87 0 1.0 5.0 0.00 0.00 0.22 71 1014.5
20260905220730 88 23 2.0 2.0 0.00 0.00 0.22 68 1014.5
20260905215838 88 23 2.0 3.0 0.00 0.00 0.22 69 1014.5
20260905214951 90 113 4.0 4.0 0.00 0.00 0.22 67 1014.5
20260905214521 90 0 2.0 4.0 0.00 0.00 0.22 65 1014.5
20260905214105 90 23 3.0 5.0 0.00 0.00 0.22 66 1014.5
20260905213636 91 45 5.0 5.0 0.00 0.00 0.22 65 1014.5
20260905212252 91 0 4.0 5.0 0.00 0.00 0.22 66 1014.2
20260905211407 92 45 4.0 5.0 0.00 0.00 0.22 65 1014.2
20260905210950 94 45 3.0 7.0 0.00 0.00 0.22 62 1013.8
20260905210536 94 23 4.0 6.0 0.00 0.00 0.22 61 1013.8
20260905210105 94 45 4.0 6.0 0.00 0.00 0.22 62 1013.8
20260905205617 93 23 6.0 7.0 0.00 0.00 0.22 63 1013.8
20260905204719 91 0 5.0 5.0 0.00 0.00 0.22 65 1013.8
20260905204301 92 23 6.0 6.0 0.00 0.00 0.22 63 1013.8
20260905203845 92 23 4.0 5.0 0.00 0.00 0.22 64 1013.8
20260905203430 92 0 2.0 4.0 0.00 0.00 0.22 64 1013.8
20260905203015 91 225 3.0 4.0 0.00 0.00 0.22 65 1013.8
20260905202601 91 0 4.0 4.0 0.00 0.00 0.22 64 1014.2
20260905202146 96 23 3.0 3.0 0.00 0.00 0.22 58 1014.2
20260905201732 96 23 1.0 2.0 0.00 0.00 0.22 58 1013.8
20260905201316 96 68 3.0 3.0 0.00 0.00 0.22 58 1013.8
20260905200846 97 23 3.0 3.0 0.00 0.00 0.22 56 1013.8
20260905200401 97 23 3.0 6.0 0.00 0.00 0.22 56 1014.2
20260905195946 96 23 5.0 5.0 0.00 0.00 0.22 58 1014.2
20260905195516 94 338 1.0 3.0 0.00 0.00 0.22 59 1014.2
20260905195100 95 23 2.0 6.0 0.00 0.00 0.22 58 1014.2
20260905194155 97 23 3.0 3.0 0.00 0.00 0.22 56 1014.2
20260905193708 98 45 5.0 5.0 0.00 0.00 0.22 56 1014.5
20260905193252 94 158 2.0 2.0 0.00 0.00 0.22 60 1014.5
20260905191933 97 23 2.0 5.0 0.00 0.00 0.22 56 1014.9
20260905191049 96 315 2.0 4.0 0.00 0.00 0.22 58 1014.9
20260905190617 92 45 3.0 4.0 0.00 0.00 0.22 63 1014.9
20260905185730 97 23 2.0 3.0 0.00 0.00 0.22 58 1015.2
20260905185314 97 338 3.0 5.0 0.00 0.00 0.22 57 1015.2
20260905184843 96 338 4.0 4.0 0.00 0.00 0.22 58 1015.5
20260905184429 98 23 2.0 4.0 0.00 0.00 0.22 56 1015.5
20260905183958 97 0 2.0 3.0 0.00 0.00 0.22 58 1015.5
20260905183527 94 90 2.0 5.0 0.00 0.00 0.22 63 1015.9
20260905183110 95 338 0.0 3.0 0.00 0.00 0.22 62 1015.9
20260905182652 92 180 3.0 3.0 0.00 0.00 0.22 65 1015.9
20260905182223 90 180 3.0 3.0 0.00 0.00 0.22 70 1015.9
20260905181805 90 180 2.0 2.0 0.00 0.00 0.22 70 1015.9
20260905180914 91 23 5.0 7.0 0.00 0.00 0.22 69 1015.9
20260905180012 90 338 3.0 3.0 0.00 0.00 0.22 72 1015.9
20260905175557 90 23 5.0 5.0 0.00 0.00 0.22 74 1016.2
20260905175143 89 45 5.0 6.0 0.00 0.00 0.22 76 1016.2
20260905174726 90 338 2.0 2.0 0.00 0.00 0.22 75 1016.2
20260905174257 88 225 0.0 1.0 0.00 0.00 0.22 76 1015.9
20260905173842 88 270 1.0 3.0 0.00 0.00 0.22 75 1015.9
20260905172955 87 23 2.0 6.0 0.00 0.00 0.22 79 1016.2
20260905172539 88 23 3.0 4.0 0.00 0.00 0.22 80 1016.2
20260905172109 87 0 2.0 3.0 0.00 0.00 0.22 80 1015.9
20260905171651 86 248 1.0 4.0 0.00 0.00 0.22 82 1015.9
20260905171238 86 158 2.0 3.0 0.00 0.00 0.22 83 1015.9
20260905170805 86 225 4.0 4.0 0.00 0.00 0.22 85 1015.9
20260905170335 85 158 3.0 3.0 0.00 0.00 0.22 85 1016.2
20260905165918 85 180 0.0 4.0 0.00 0.00 0.22 85 1016.2
20260905165501 85 203 1.0 2.0 0.00 0.00 0.22 86 1016.5
20260905165045 85 315 1.0 3.0 0.00 0.00 0.22 85 1016.5
20260905164629 83 248 0.0 5.0 0.00 0.00 0.22 88 1016.5
20260905164214 83 203 4.0 4.0 0.00 0.00 0.22 89 1016.5
20260905163742 82 225 2.0 3.0 0.00 0.00 0.22 90 1016.2
20260905163312 82 225 1.0 1.0 0.00 0.00 0.22 92 1016.5
20260905162840 81 180 2.0 3.0 0.00 0.00 0.22 92 1016.2
20260905161951 81 225 3.0 3.0 0.00 0.00 0.22 93 1016.2
20260905161536 81 180 3.0 4.0 0.00 0.00 0.22 93 1016.5
20260905160649 80 180 3.0 6.0 0.00 0.00 0.22 94 1016.2
20260905155332 80 203 3.0 3.0 0.00 0.00 0.22 95 1016.5
20260905154847 80 158 0.0 3.0 0.00 0.00 0.22 93 1016.9
20260905154417 81 338 3.0 3.0 0.00 0.00 0.22 92 1016.9
20260905153527 79 23 3.0 3.0 0.00 0.00 0.22 95 1016.9
20260905153111 79 180 4.0 4.0 0.00 0.00 0.22 98 1016.9
20260905152653 78 23 4.0 5.0 0.00 0.00 0.22 98 1016.9
20260905152236 78 203 3.0 4.0 0.00 0.00 0.22 99 1016.9
20260905151347 78 270 2.0 4.0 0.00 0.00 0.22 99 1016.9
20260905150931 78 225 2.0 2.0 0.00 0.00 0.22 99 1016.5
20260905150513 78 113 0.0 0.0 0.00 0.00 0.22 98 1016.5
20260905150058 78 270 1.0 3.0 0.00 0.00 0.22 99 1016.2
20260905145641 78 225 3.0 3.0 0.00 0.00 0.22 99 1016.5
20260905145225 78 225 3.0 3.0 0.00 0.00 0.22 99 1016.9
20260905144808 79 203 1.0 2.0 0.00 0.00 0.22 97 1016.9
20260905144352 79 180 2.0 4.0 0.00 0.00 0.22 97 1016.9
20260905143935 80 203 0.0 3.0 0.00 0.00 0.22 96 1017.2
20260905143504 80 113 1.0 4.0 0.00 0.00 0.22 96 1017.2
20260905143032 78 293 0.0 0.0 0.00 0.00 0.22 99 1017.2
20260905142615 77 180 0.0 3.0 0.00 0.00 0.22 99 1017.2
20260905142159 77 180 2.0 3.0 0.00 0.00 0.22 99 1017.6
20260905141740 77 225 0.0 2.0 0.00 0.00 0.22 99 1017.9
20260905141325 76 203 1.0 1.0 0.00 0.00 0.22 99 1017.6
20260905140838 74 203 1.0 3.0 0.00 0.00 0.22 99 1017.9
20260905140422 74 180 0.0 0.0 0.00 0.00 0.22 99 1017.9
20260905140005 73 203 0.0 0.0 0.00 0.00 0.22 99 1018.2
20260905135547 73 158 0.0 0.0 0.00 0.00 0.22 99 1018.2
20260905135130 73 248 2.0 2.0 0.00 0.00 0.21 99 1018.2
20260905134658 73 293 0.0 0.0 0.00 0.00 0.18 99 1018.6
20260905134242 73 203 0.0 1.0 0.00 0.00 0.17 99 1018.2
20260905132919 73 338 0.0 0.0 0.00 0.00 0.17 99 1018.2
20260905132448 73 45 0.0 0.0 0.00 0.00 0.17 99 1018.2
20260905132017 73 338 0.0 0.0 0.00 0.00 0.17 99 1017.9
20260905131546 73 293 0.0 0.0 0.00 0.00 0.17 99 1017.9
20260905131129 73 113 0.0 2.0 0.00 0.00 0.17 99 1017.9
20260905130713 73 45 1.0 5.0 0.00 0.00 0.17 99 1017.6
20260905125822 73 90 6.0 6.0 0.00 0.00 0.16 99 1018.2
20260905125404 73 45 10.0 10.0 0.00 0.00 0.02 99 1017.9
20260905124933 73 0 3.0 3.0 0.00 0.00 0.00 99 1017.9
20260905124502 73 248 0.0 0.0 0.00 0.00 0.00 99 1017.6
20260905124046 72 225 0.0 0.0 0.00 0.00 0.00 99 1017.2
20260905123616 72 225 0.0 1.0 0.00 0.00 0.00 99 1017.2
20260905123200 72 23 2.0 3.0 0.00 0.00 0.00 99 1016.9
20260905122743 72 293 0.0 7.0 0.00 0.00 0.00 99 1017.2
20260905121838 72 45 8.0 8.0 0.00 0.00 0.00 99 1016.2
20260905120507 72 0 0.0 0.0 0.00 0.00 0.00 99 1016.2
20260905120050 72 225 0.0 0.0 0.00 0.00 0.00 99 1015.9
20260905115604 72 225 0.0 0.0 0.00 0.00 0.00 99 1015.9
20260905115132 71 248 0.0 0.0 0.00 0.00 0.00 99 1015.9
20260905114715 71 23 0.0 0.0 0.00 0.00 0.00 99 1015.9
20260905114245 71 23 0.0 0.0 0.00 0.00 0.00 99 1015.9
20260905113830 71 23 0.0 0.0 0.00 0.00 0.00 99 1015.9
20260905112459 71 315 0.0 0.0 0.00 0.00 0.00 99 1015.9
20260905111614 71 248 0.0 0.0 0.00 0.00 0.00 99 1015.9
20260905111157 71 293 0.0 0.0 0.00 0.00 0.00 99 1015.5
20260905110312 71 338 0.0 0.0 0.00 0.00 0.00 99 1015.9
20260905105857 71 293 0.0 0.0 0.00 0.00 0.00 99 1015.5
20260905104939 71 225 0.0 0.0 0.00 0.00 0.00 99 1015.9
20260905104523 71 225 0.0 0.0 0.00 0.00 0.00 99 1015.9
20260905104107 71 225 0.0 0.0 0.00 0.00 0.00 99 1015.5
20260905103651 71 248 0.0 0.0 0.00 0.00 0.00 99 1015.9